WZZ307E LZTT-EPGD

Flight info

Callsign WZZ307E
Flight time N/A
Altitude 34000
Route UMARY M66 BABKO Z169 POLON DCT ADOXO N133 GRUDA Z95 OSLOG
Aircraft A21N/M-SDE1E2E3FGIJ1J4RWXY/LB1

Departure

Time 2026-05-01 14:52
Airport Poprad-Tatry Airport (LZTT)

Arrival

Time N/A
Airport Gdańsk Lech Wałęsa Airport (EPGD)
Time Latitude Longitude Altitude Speed Heading
2026-05-01 14:14 49.06961 20.24839 2311 ft 0 kts 253°
2026-05-01 14:48 49.06974 20.24822 2311 ft 4 kts 353°
2026-05-01 14:48 49.07003 20.24819 2310 ft 5 kts
2026-05-01 14:48 49.07104 20.24829 2315 ft 11 kts
2026-05-01 14:49 49.07282 20.24846 2323 ft 10 kts
2026-05-01 14:49 49.07316 20.25055 2314 ft 14 kts 93°
2026-05-01 14:50 49.07307 20.25269 2310 ft 17 kts 94°
2026-05-01 14:50 49.07284 20.25743 2299 ft 13 kts 102°
2026-05-01 14:51 49.07250 20.25849 2292 ft 10 kts 87°
2026-05-01 14:51 49.07283 20.25783 2294 ft 0 kts 274°
2026-05-01 14:52 49.07332 20.24715 2324 ft 126 kts 274°
2026-05-01 14:52 49.07400 20.23137 2452 ft 164 kts 276°
2026-05-01 14:52 49.07554 20.19643 3747 ft 169 kts 274°
2026-05-01 14:53 49.07641 20.17860 4471 ft 169 kts 278°
2026-05-01 14:53 49.07728 20.16062 5194 ft 171 kts 279°
2026-05-01 14:53 49.07812 20.14213 5755 ft 182 kts 280°
2026-05-01 14:53 49.07906 20.12200 6230 ft 198 kts 278°
2026-05-01 14:54 49.08002 20.10067 6777 ft 211 kts 277°
2026-05-01 14:54 49.08111 20.07769 7327 ft 223 kts 279°
2026-05-01 14:54 49.08222 20.05381 8010 ft 229 kts 278°
2026-05-01 14:54 49.08332 20.02934 8743 ft 233 kts 278°
2026-05-01 14:55 49.08445 20.00446 9462 ft 237 kts 279°
2026-05-01 14:55 49.08561 19.97889 10172 ft 241 kts 279°
2026-05-01 14:55 49.08676 19.95348 10790 ft 245 kts 280°
2026-05-01 14:55 49.08793 19.92725 11414 ft 251 kts 280°
2026-05-01 14:56 49.08918 19.89985 11779 ft 268 kts 280°
2026-05-01 14:56 49.09049 19.87058 12177 ft 283 kts 280°
2026-05-01 14:56 49.09184 19.84018 12797 ft 290 kts 280°
2026-05-01 14:56 49.09316 19.80922 13485 ft 295 kts 280°
2026-05-01 14:57 49.09451 19.77779 14141 ft 299 kts 281°
2026-05-01 14:57 49.09735 19.71236 14994 ft 325 kts 280°
2026-05-01 14:57 49.09883 19.67699 15259 ft 343 kts 279°
2026-05-01 14:58 49.10079 19.63976 15511 ft 358 kts 285°
2026-05-01 14:58 49.10860 19.60392 15876 ft 355 kts 306°
2026-05-01 14:58 49.12227 19.57269 16493 ft 354 kts 313°
2026-05-01 14:58 49.13692 19.54222 17159 ft 358 kts 313°
2026-05-01 14:59 49.15168 19.51132 17813 ft 362 kts 313°
2026-05-01 14:59 49.16646 19.47992 18463 ft 366 kts 313°
2026-05-01 14:59 49.18135 19.44812 19039 ft 370 kts 313°
2026-05-01 14:59 49.19637 19.41601 19600 ft 373 kts 313°
2026-05-01 15:00 49.23326 19.36301 20581 ft 359 kts 340°
2026-05-01 15:00 49.25642 19.35055 21072 ft 350 kts 355°
2026-05-01 15:00 49.28043 19.34843 21598 ft 344 kts
2026-05-01 15:01 49.30379 19.35500 22140 ft 341 kts 18°
2026-05-01 15:01 49.32687 19.36392 22691 ft 343 kts 18°
2026-05-01 15:01 49.35013 19.37292 23206 ft 347 kts 18°
2026-05-01 15:01 49.37372 19.38182 23733 ft 350 kts 18°
2026-05-01 15:02 49.39747 19.39064 24198 ft 352 kts 18°
2026-05-01 15:02 49.40519 19.39350 24337 ft 353 kts 18°
2026-05-01 15:02 49.44546 19.40834 25049 ft 357 kts 18°
2026-05-01 15:02 49.46971 19.41725 25484 ft 359 kts 18°
2026-05-01 15:03 49.49405 19.42618 25908 ft 361 kts 18°
2026-05-01 15:03 49.51858 19.43520 26321 ft 363 kts 18°
2026-05-01 15:03 49.54319 19.44425 26720 ft 365 kts 18°
2026-05-01 15:03 49.56797 19.45337 27127 ft 367 kts 18°
2026-05-01 15:04 49.59288 19.46258 27516 ft 369 kts 17°
2026-05-01 15:04 49.61827 19.46981 27884 ft 375 kts 11°
2026-05-01 15:04 49.64444 19.47273 28236 ft 379 kts
2026-05-01 15:04 49.67087 19.47477 28593 ft 381 kts
2026-05-01 15:05 49.69740 19.47677 28965 ft 383 kts
2026-05-01 15:05 49.72403 19.47887 29331 ft 384 kts
2026-05-01 15:05 49.75080 19.48104 29665 ft 386 kts
2026-05-01 15:05 49.77769 19.48325 29992 ft 388 kts
2026-05-01 15:06 49.80436 19.48542 30303 ft 390 kts
2026-05-01 15:06 49.83188 19.48765 30587 ft 392 kts
2026-05-01 15:06 49.85880 19.48986 30859 ft 393 kts
2026-05-01 15:06 49.88616 19.49208 31131 ft 394 kts
2026-05-01 15:07 49.91360 19.49434 31390 ft 396 kts
2026-05-01 15:07 49.94114 19.49659 31644 ft 397 kts
2026-05-01 15:07 49.96874 19.49887 31891 ft 398 kts
2026-05-01 15:07 49.98742 19.50039 32049 ft 399 kts
2026-05-01 15:08 50.02423 19.50347 32303 ft 401 kts
2026-05-01 15:08 50.05209 19.50577 32561 ft 401 kts
2026-05-01 15:08 50.07983 19.50807 32917 ft 398 kts
2026-05-01 15:08 50.10743 19.51035 33267 ft 396 kts
2026-05-01 15:09 50.12598 19.51189 33481 ft 395 kts
2026-05-01 15:09 50.15338 19.51420 33776 ft 394 kts
2026-05-01 15:09 50.18032 19.51644 34048 ft 393 kts
2026-05-01 15:09 50.20756 19.51872 34307 ft 392 kts
2026-05-01 15:10 50.23476 19.52106 34515 ft 391 kts
2026-05-01 15:10 50.28914 19.52558 34879 ft 391 kts
2026-05-01 15:10 50.31633 19.52791 35063 ft 391 kts
2026-05-01 15:11 50.34349 19.53027 35241 ft 391 kts
2026-05-01 15:11 50.39788 19.53485 35555 ft 392 kts
2026-05-01 15:11 50.42515 19.53712 35728 ft 392 kts
2026-05-01 15:12 50.45236 19.53931 35879 ft 392 kts
2026-05-01 15:12 50.50681 19.54388 36193 ft 392 kts
2026-05-01 15:12 50.53403 19.54617 36328 ft 393 kts
2026-05-01 15:14 50.67086 19.55784 36320 ft 394 kts
2026-05-01 15:14 50.75309 19.56480 36318 ft 394 kts
2026-05-01 15:15 50.86284 19.57413 36357 ft 395 kts
2026-05-01 15:16 50.97227 19.58346 36339 ft 395 kts
2026-05-01 15:18 51.10958 19.59533 36320 ft 395 kts
2026-05-01 15:19 51.21939 19.60496 36326 ft 395 kts
2026-05-01 15:19 51.30137 19.61216 36327 ft 395 kts
2026-05-01 15:20 51.38371 19.61946 36318 ft 395 kts
2026-05-01 15:21 51.43859 19.62435 36323 ft 395 kts
2026-05-01 15:21 51.49350 19.62916 36330 ft 395 kts
2026-05-01 15:22 51.57585 19.63634 36312 ft 395 kts
2026-05-01 15:22 51.63084 19.64128 36309 ft 396 kts
2026-05-01 15:23 51.68600 19.64613 36316 ft 397 kts
2026-05-01 15:23 51.74114 19.65102 36318 ft 397 kts
2026-05-01 15:24 51.79635 19.65347 36315 ft 400 kts 358°
2026-05-01 15:24 51.85076 19.63203 36320 ft 405 kts 346°
2026-05-01 15:25 51.90451 19.60472 36317 ft 405 kts 347°
2026-05-01 15:25 51.95833 19.57803 36317 ft 405 kts 347°
2026-05-01 15:26 52.01221 19.55153 36319 ft 404 kts 347°
2026-05-01 15:26 52.06602 19.52509 36319 ft 404 kts 347°
2026-05-01 15:27 52.11969 19.49851 36234 ft 401 kts 347°
2026-05-01 15:27 52.14587 19.48555 35932 ft 396 kts 347°
2026-05-01 15:28 52.19818 19.45968 35412 ft 391 kts 348°
2026-05-01 15:28 52.22415 19.44692 35168 ft 389 kts 348°
2026-05-01 15:28 52.25003 19.43415 34919 ft 387 kts 348°
2026-05-01 15:29 52.30138 19.40862 34435 ft 384 kts 348°
2026-05-01 15:29 52.32682 19.39594 34181 ft 382 kts 348°
2026-05-01 15:29 52.37751 19.37056 33626 ft 379 kts 348°
2026-05-01 15:30 52.42773 19.34540 33076 ft 376 kts 348°
2026-05-01 15:31 52.52721 19.29535 31999 ft 371 kts 348°
2026-05-01 15:31 52.57657 19.27041 31489 ft 370 kts 347°
2026-05-01 15:32 52.62569 19.24551 30986 ft 368 kts 347°
2026-05-01 15:32 52.67449 19.22070 30505 ft 366 kts 347°
2026-05-01 15:33 52.74700 19.18350 29652 ft 361 kts 347°
2026-05-01 15:34 52.81852 19.14718 28815 ft 356 kts 348°